Miscellaneous Local Product
Issued by NWS Hastings, NE

Home | Current Version | Previous Version | Text Only | Print | Product List | Glossary Off
Versions: 1 2 3 4 5 6 7 8 9 10 11 12 13 14 15 16 17 18 19 20 21 22 23 24 25 26 27 28 29 30 31 32 33 34 35 36 37 38 39 40 41 42 43 44 45 46 47 48 49 50

000
AXUS43 KGID 280902
MISGRI

GID CWA HOURLY WEATHER ROUNDUP
NATIONAL WEATHER SERVICE HASTINGS NE
300 AM CST SUN DEC 28 2014

NOTE: "FAIR" INDICATES FEW OR NO CLOUDS BELOW 12,000 FEET WITH NO
SIGNIFICANT WEATHER AND/OR OBSTRUCTIONS TO VISIBILITY.

...SOUTH CENTRAL NEBRASKA...

CITY           SKY/WX    TMP DP  RH WIND       PRES   REMARKS
GRAND ISLAND     N/A     12   7  80 SW7       30.14S WCI   1
HASTINGS       CLEAR     14   9  80 SW7       30.13S WCI   4
KEARNEY        CLEAR     12   9  85 SW6       30.12F WCI   3
ORD            PTCLDY     4   1  88 SW5       30.10R WCI  -5
YORK           CLEAR     10   9  92 SW7       30.15S WCI   0
AURORA         PTCLDY    13   9  83 W6        30.13S WCI   4
LEXINGTON      PTCLDY     2  -1  85 N5        30.12F WCI  -7
HOLDREGE       PTCLDY    15   9  76 W9        30.13S WCI   3
HEBRON         CLEAR     17  12  82 W5        30.19F WCI   9

...NEBRASKA PANHANDLE...

CITY           SKY/WX    TMP DP  RH WIND       PRES   REMARKS
CHADRON        MOCLDY     1  -3  83 W9        30.02S WCI -14
ALLIANCE       PTCLDY    -3  -6  87 SW3       29.99F
SCOTTSBLUFF    PTCLDY    -2  -6  83 N3        30.01F
SIDNEY         MOCLDY     0  -6  76 W7        30.02F WCI -13

...WESTERN AND NORTH CENTRAL NEBRASKA...

CITY           SKY/WX    TMP DP  RH WIND       PRES   REMARKS
VALENTINE      PTCLDY     1  -2  87 SW6       30.05S WCI -10
AINSWORTH      PTCLDY     8   2  80 W7        30.05R WCI  -4
ONEILL         PTCLDY    10   7  89 W3        30.08R
BROKEN BOW     PTCLDY    11   5  77 SE5       30.08S WCI   3
IMPERIAL       PTCLDY    -1  -6  79 SW6       30.09S WCI -13
NORTH PLATTE   PTCLDY    -2  -6  83 NW7       30.10S WCI -15
MCCOOK         PTCLDY     4   2  91 W5        30.14S WCI  -5

...EASTERN NEBRASKA...

CITY           SKY/WX    TMP DP  RH WIND       PRES   REMARKS
NORFOLK        PTCLDY     7   5  91 CALM      30.10F
SO SIOUX CITY  CLEAR      8   4  83 E6        30.14S WCI  -2
TEKAMAH        CLEAR     12   8  84 SE7       30.16F WCI   1
COLUMBUS       CLEAR     12   3  67 W6        30.15S WCI   3
ALBION         PTCLDY    13   8  78 NW6       30.10F WCI   4
OMAHA EPPLEY   CLEAR     18  14  84 S8        30.19S WCI   8
OFFUTT AFB     CLEAR     16  13  87 SE2       30.17F
MILLARD        CLEAR     19  15  86 CALM      30.17F
LINCOLN        CLEAR     18  13  80 W5        30.18F WCI  11
NEBRASKA CITY  CLEAR     17  12  82 S5        30.18F WCI   9
BEATRICE       CLEAR     15  12  88 CALM      30.19S
FALLS CITY     CLEAR     19  14  81 SW3       30.22S

...NORTHERN KANSAS...

CITY           SKY/WX    TMP DP  RH WIND       PRES   REMARKS
GOODLAND       PTCLDY    17  10  74 SW12      30.09S WCI   4
HILL CITY      PTCLDY    11   5  77 W7        30.17F WCI   0
NORTON         SUNNY      5   0  78 SW5       30.14S WCI  -4
PHILLIPSBURG   CLEAR     10   7  85 W5        30.18F WCI   2
BELOIT         CLEAR     16  12  86 W5        30.21S WCI   9
HAYS           CLEAR     16   5  62 W5        30.19S WCI   9
RUSSELL        CLEAR     15  12  88 SW7       30.19F WCI   5
CONCORDIA      CLEAR     21  16  81 W10       30.19F WCI  10
SALINA         CLEAR     18  14  84 S5        30.25S WCI  11
TOPEKA         CLEAR     19  15  84 CALM      30.26F



USA.gov is the U.S. government's official web portal to all federal, state and local government web resources and services.